Surface/Precipitation History
02/08/2018 18:28  to  2/9/2018 18:28
Change End Date:
Date/Time
(MDT)
Sf
Temp Chem Water Layer Surface Precipitation
Sfc Pvt Sub Frz Factor Pct Dpth DpthThk IcePct Cond Salin FI Type Intens Accum Rate
02/09/2018 18:25 Ice Warning 19.2F - 32F 32F 20 0% - - 100% 0 mhos 0 - Yes - - -
02/09/2018 18:20 Ice Warning 19.4F - 32F 32F 20 0% - - 100% 0 mhos 0 - Yes - - -
02/09/2018 18:10 Ice Warning 19.6F - 32F 32F 10 0% - - 100% 0 mhos 0 - Yes - - -
02/09/2018 18:10 Ice Warning 19.6F - 32F 32F 10 0% - - 100% 0 mhos 0 - Yes - - -
02/09/2018 18:00 Ice Warning 19.9F - 32F 32F 5 0% - - 100% 0 mhos 0 - Yes - - -
02/09/2018 17:55 Ice Warning 20.3F - 32F 32F 5 0% - - 100% 0 mhos 0 - Yes - - -
02/09/2018 17:50 Dry 20.3F - 32F - - - - - - 0 mhos 0 - Yes - - -
02/09/2018 17:40 Dry 20.8F - 32F - - - - - - 0 mhos 0 - None None - -
02/09/2018 17:40 Dry 20.8F - 32F - - - - - - 0 mhos 0 - None None - -
02/09/2018 17:30 Ice Warning 21.4F - 32F 32F 5 0% - - 100% 0 mhos 0 - None None - -
02/09/2018 17:25 Ice Warning 21.6F - 32F 32F 5 0% - - 100% 0 mhos 0 - None None - -
02/09/2018 17:20 Ice Warning 22.1F - 32F 32F 5 0% - - 100% 0 mhos 0 - Yes - - -
02/09/2018 17:10 Dry 22.6F - 32F - - - - - - 0 mhos 0 - None None - -
02/09/2018 17:10 Dry 22.8F - 32F - - - - - - 0 mhos 0 - None None - -
02/09/2018 17:00 Dry 23.5F - 32F - - - - - - 0 mhos 0 - None None - -
Date/Time
(MDT)
Sf
Temp Chem Water Layer Surface Precipitation
Sfc Pvt Sub Frz Factor Pct Dpth DpthThk IcePct Cond Salin FI Type Intens Accum Rate
02/09/2018 16:56 Dry 23.9F - 32F - - - - - - 0 mhos 0 - None None - -
02/09/2018 16:50 Dry 24.3F - 32F - - - - - - 0 mhos 0 - None None - -
02/09/2018 16:40 Ice Watch 25.0F - 32F - 5 - - - - 0 mhos 0 - None None - -
02/09/2018 16:39 Dry 25.0F - 32F - - - - - - 0 mhos 0 - None None - -
02/09/2018 16:29 Dry 25.9F - 32F - - - - - - 1 mhos 0 - None None - -
02/09/2018 16:25 Ice Warning 25.9F - 32F 32F 5 0% - - 100% 1 mhos 0 - None None - -
02/09/2018 16:19 Dry 26.4F - 32F - - - - - - 1 mhos 0 - None None - -
02/09/2018 16:10 Dry 26.6F - 32F - - - - - - 1 mhos 0 - None None - -
02/09/2018 16:09 Ice Warning 26.4F - 32F 32F 5 0% - - 100% 1 mhos 0 - None None - -
02/09/2018 15:59 Dry 27.9F - 32F - - - - - - 1 mhos 0 - Yes - - -
02/09/2018 15:55 Ice Warning 28.0F - 32F 32F 5 0% - - 100% 1 mhos 0 - Yes - - -
02/09/2018 15:49 Ice Warning 28.8F - 32F 32F 15 0% - - 100% 1 mhos 0 - None None - -
02/09/2018 15:40 Ice Warning 28.9F - 32F 32F 5 0% - - 100% 1 mhos 0 - Yes - - -
02/09/2018 15:39 Ice Warning 28.6F - 32F 32F 5 0% - - 100% 1 mhos 0 - Yes - - -
02/09/2018 15:29 Ice Warning 28.8F - 32F 32F 5 0% - - 100% 1 mhos 0 - Yes - - -
Date/Time
(MDT)
Sf
Temp Chem Water Layer Surface Precipitation
Sfc Pvt Sub Frz Factor Pct Dpth DpthThk IcePct Cond Salin FI Type Intens Accum Rate
02/09/2018 15:26 Ice Warning 28.8F - 32F 32F 5 0% - - 100% 1 mhos 0 - Yes - - -
02/09/2018 15:19 Ice Warning 29.1F - 32F 32F 5 0% - - 100% 1 mhos 0 - Yes - - -
02/09/2018 15:10 Ice Warning 29.1F - 32F 32F 5 0% - - 100% 1 mhos 0 - Yes - - -
02/09/2018 15:09 Ice Warning 29.3F - 32F 32F 5 0% - - 100% 1 mhos 0 - Yes - - -
02/09/2018 14:59 Ice Warning 28.4F - 32F 32F 5 0% - - 100% 1 mhos 0 - None None - -
02/09/2018 14:55 Ice Warning 28.8F - 32F 32F 5 0% - - 100% 1 mhos 0 - None None - -
02/09/2018 14:49 Ice Warning 29.1F - 32F 32F 15 0% - - 100% 1 mhos 0 - None None - -
02/09/2018 14:40 Ice Warning 28.0F - 32F 32F 35 0% - - 100% 1 mhos 0 - None None - -
02/09/2018 14:39 Ice Warning 28.2F - 32F 32F 25 0% - - 100% 1 mhos 0 - None None - -
02/09/2018 14:29 Ice Warning 27.5F - 32F 32F 30 0% - - 100% 1 mhos 0 - Yes - - -
02/09/2018 14:25 Ice Warning 27.5F - 32F 32F 30 0% - - 100% 1 mhos 0 - Yes - - -
02/09/2018 14:19 Ice Warning 27.5F - 32F 32F 30 0% - - 100% 1 mhos 0 - Yes - - -
02/09/2018 14:10 Ice Warning 28.0F - 32F 32F 30 0% - - 100% 1 mhos 0 - Yes - - -
02/09/2018 14:09 Ice Warning 27.7F - 32F 32F 25 0% - - 100% 1 mhos 0 - Yes - - -
02/09/2018 13:59 Ice Warning 28.2F - 32F 32F 30 0% - - 100% 1 mhos 0 - Yes - - -
Date/Time
(MDT)
Sf
Temp Chem Water Layer Surface Precipitation
Sfc Pvt Sub Frz Factor Pct Dpth DpthThk IcePct Cond Salin FI Type Intens Accum Rate
02/09/2018 13:55 Ice Warning 28.2F - 32F 32F 30 0% - - 100% 1 mhos 0 - Yes - - -
02/09/2018 13:48 Ice Warning 28.0F - 32F 32F 35 0% - - 100% 1 mhos 0 - Yes - - -
02/09/2018 13:40 Ice Warning 28.0F - 32F 32F 35 0% - - 100% 1 mhos 0 - Yes - - -
02/09/2018 13:38 Ice Warning 28.0F - 32F 32F 35 0% - - 100% 1 mhos 0 - Yes - - -
02/09/2018 13:28 Ice Warning 28.8F - 32F 32F 50 0% - - 100% 1 mhos 0 - Yes - - -
02/09/2018 13:25 Ice Warning 28.6F - 32F 32F 45 0% - - 100% 1 mhos 0 - Yes - - -
02/09/2018 13:18 Ice Warning 28.9F - 32F 32F 40 0% - - 100% 1 mhos 0 - None None - -
02/09/2018 13:10 Ice Warning 27.9F - 32F 32F 30 0% - - 100% 1 mhos 0 - Yes - - -
02/09/2018 13:08 Ice Warning 27.7F - 32F 32F 5 0% - - 100% 1 mhos 0 - None None - -
02/09/2018 12:58 Ice Warning 27.3F - 32F 32F 15 0% - - 100% 1 mhos 0 - Yes - - -
02/09/2018 12:55 Ice Warning 27.5F - 32F 32F 10 0% - - 100% 1 mhos 0 - None None - -
02/09/2018 12:48 Ice Warning 27.7F - 32F 32F 15 0% - - 100% 1 mhos 0 - None None - -
02/09/2018 12:40 Ice Warning 27.7F - 32F 32F 20 0% - - 100% 1 mhos 0 - None None - -
02/09/2018 12:38 Ice Warning 27.7F - 32F 32F 20 0% - - 100% 1 mhos 0 - Yes - - -
02/09/2018 12:28 Ice Warning 27.7F - 32F 32F 20 0% - - 100% 1 mhos 0 - Yes - - -
Date/Time
(MDT)
Sf
Temp Chem Water Layer Surface Precipitation
Sfc Pvt Sub Frz Factor Pct Dpth DpthThk IcePct Cond Salin FI Type Intens Accum Rate
02/09/2018 12:25 Ice Warning 27.7F - 32F 32F 20 0% - - 100% 1 mhos 0 - Yes - - -
02/09/2018 12:18 Ice Warning 28.0F - 32F 32F 20 0% - - 100% 1 mhos 0 - Yes - - -
02/09/2018 12:10 Ice Warning 28.0F - 32F 32F 25 0% - - 100% 1 mhos 0 - Yes - - -
02/09/2018 12:08 Ice Warning 28.0F - 32F 32F 35 0% - - 100% 1 mhos 0 - Yes - - -
02/09/2018 11:58 Ice Warning 28.6F - 32F 32F 40 0% - - 100% 1 mhos 0 - Yes - - -
02/09/2018 11:55 Ice Warning 28.4F - 32F 32F 40 0% - - 100% 1 mhos 0 - Yes - - -
02/09/2018 11:48 Ice Warning 28.6F - 32F 32F 45 0% - - 100% 1 mhos 0 - Yes - - -
02/09/2018 11:40 Ice Warning 29.7F - 32F 32F 95 0% - - 100% 1 mhos 0 - Yes - - -
02/09/2018 11:38 Ice Warning 29.5F - 32F 32F 95 0% - - 100% 1 mhos 0 - Yes - - -
02/09/2018 11:28 Ice Warning 29.8F - 32F 32F 65 0% - - 100% 1 mhos 0 - Yes - - -
02/09/2018 11:25 Ice Warning 29.5F - 32F 32F 60 0% - - 100% 1 mhos 0 - Yes - - -
02/09/2018 11:18 Ice Warning 28.0F - 32F 32F 45 0% - - 100% 1 mhos 0 - None None - -
02/09/2018 11:10 Ice Warning 27.9F - 32F 32F 5 0% - - 100% 1 mhos 0 - None None - -
02/09/2018 11:08 Ice Warning 27.7F - 32F 32F 5 0% - - 100% 1 mhos 0 - None None - -
02/09/2018 10:57 Ice Warning 29.1F - 32F 32F 5 0% - - 100% 0 mhos 0 - None None - -
Date/Time
(MDT)
Sf
Temp Chem Water Layer Surface Precipitation
Sfc Pvt Sub Frz Factor Pct Dpth DpthThk IcePct Cond Salin FI Type Intens Accum Rate
02/09/2018 10:55 Ice Warning 28.0F - 32F 32F 5 0% - - 100% 0 mhos 0 - None None - -
02/09/2018 10:47 Ice Warning 28.8F - 32F 32F 5 0% - - 100% 0 mhos 0 - None None - -
02/09/2018 10:40 Ice Warning 27.1F - 32F 32F 5 0% - - 100% 0 mhos 0 - None None - -
02/09/2018 10:37 Ice Warning 28.0F - 32F 32F 5 0% - - 100% 0 mhos 0 - None None - -
02/09/2018 10:27 Ice Warning 25.7F - 32F 32F 5 0% - - 100% 0 mhos 0 - None None - -
02/09/2018 10:25 Ice Warning 24.6F - 32F 32F 5 0% - - 100% 0 mhos 0 - None None - -
02/09/2018 10:17 Ice Warning 21.7F - 32F 32F 5 0% - - 100% 0 mhos 0 - None None - -
02/09/2018 10:10 Ice Warning 21.7F - 32F 32F 5 0% - - 100% 0 mhos 0 - None None - -
02/09/2018 10:07 Ice Warning 21.6F - 32F 32F 5 0% - - 100% 0 mhos 0 - Yes - - -
02/09/2018 09:57 Ice Warning 21.0F - 32F 32F 5 0% - - 100% 0 mhos 0 - Yes - - -
02/09/2018 09:55 Ice Warning 21.4F - 32F 32F 5 0% - - 100% 0 mhos 0 - Yes - - -
02/09/2018 09:47 Ice Warning 21.0F - 32F 32F 5 0% - - 100% 0 mhos 0 - Yes - - -
02/09/2018 09:40 Ice Warning 20.7F - 32F 32F 5 0% - - 100% 0 mhos 0 - Yes - - -
02/09/2018 09:37 Ice Warning 20.3F - 32F 32F 5 0% - - 100% 0 mhos 0 - Yes - - -
02/09/2018 09:27 Ice Warning 20.3F - 32F 32F 5 0% - - 100% 0 mhos 0 - Yes - - -
Date/Time
(MDT)
Sf
Temp Chem Water Layer Surface Precipitation
Sfc Pvt Sub Frz Factor Pct Dpth DpthThk IcePct Cond Salin FI Type Intens Accum Rate
02/09/2018 09:25 Ice Warning 20.5F - 32F 32F 5 0% - - 100% 0 mhos 0 - Yes - - -
02/09/2018 09:17 Ice Warning 20.5F - 32F 32F 5 0% - - 100% 0 mhos 0 - Yes - - -
02/09/2018 09:10 Ice Warning 20.7F - 32F 32F 5 0% - - 100% 0 mhos 0 - Yes - - -
02/09/2018 09:07 Ice Warning 21.0F - 32F 32F 5 0% - - 100% 0 mhos 0 - Yes - - -
02/09/2018 08:57 Ice Warning 20.8F - 32F 32F 5 0% - - 100% 0 mhos 0 - Yes - - -
02/09/2018 08:55 Ice Warning 20.7F - 32F 32F 5 0% - - 100% 0 mhos 0 - Yes - - -
02/09/2018 08:47 Ice Warning 21.2F - 32F 32F 5 0% - - 100% 0 mhos 0 - Yes - - -
02/09/2018 08:40 Ice Warning 21.7F - 32F 32F 5 0% - - 100% 0 mhos 0 - Yes - - -
02/09/2018 08:37 Ice Warning 21.7F - 32F 32F 5 0% - - 100% 0 mhos 0 - Yes - - -
02/09/2018 08:26 Ice Warning 22.1F - 32F 32F 5 0% - - 100% 0 mhos 0 - Yes - - -
02/09/2018 08:25 Ice Warning 22.1F - 32F 32F 5 0% - - 100% 0 mhos 0 - Yes - - -
02/09/2018 08:16 Ice Warning 21.9F - 32F 32F 5 0% - - 100% 0 mhos 0 - Yes - - -
02/09/2018 08:10 Ice Warning 21.6F - 32F 32F 5 0% - - 100% 0 mhos 0 - Yes - - -
02/09/2018 08:06 Ice Warning 21.6F - 32F 32F 5 0% - - 100% 0 mhos 0 - Yes - - -
02/09/2018 07:56 Ice Warning 21.7F - 32F 32F 5 0% - - 100% 0 mhos 0 - Yes - - -
Date/Time
(MDT)
Sf
Temp Chem Water Layer Surface Precipitation
Sfc Pvt Sub Frz Factor Pct Dpth DpthThk IcePct Cond Salin FI Type Intens Accum Rate
02/09/2018 07:56 Ice Warning 21.7F - 32F 32F 5 0% - - 100% 0 mhos 0 - Yes - - -
02/09/2018 07:46 Ice Warning 21.4F - 32F 32F 10 0% - - 100% 0 mhos 0 - Yes - - -
02/09/2018 07:40 Ice Warning 21.2F - 32F 32F 10 0% - - 100% 0 mhos 0 - Yes - - -
02/09/2018 07:36 Ice Warning 21.0F - 32F 32F 10 0% - - 100% 0 mhos 0 - Yes - - -
02/09/2018 07:26 Ice Warning 20.5F - 32F 32F 10 0% - - 100% 0 mhos 0 - Yes - - -
02/09/2018 07:25 Ice Warning 20.7F - 32F 32F 10 0% - - 100% 0 mhos 0 - Yes - - -
02/09/2018 07:16 Ice Warning 21.2F - 32F 32F 10 0% - - 100% 0 mhos 0 - Yes - - -
02/09/2018 07:10 Ice Warning 20.5F - 32F 32F 10 0% - - 100% 0 mhos 0 - Yes - - -
02/09/2018 07:06 Ice Warning 20.3F - 32F 32F 10 0% - - 100% 0 mhos 0 - Yes - - -
02/09/2018 06:56 Ice Warning 20.3F - 32F 32F 10 0% - - 100% 0 mhos 0 - Yes - - -
02/09/2018 06:56 Ice Warning 20.1F - 32F 32F 5 0% - - 100% 0 mhos 0 - Yes - - -
02/09/2018 06:46 Ice Warning 19.0F - 32F 32F 5 0% - - 100% 0 mhos 0 - Yes - - -
02/09/2018 06:40 Ice Warning 19.0F - 32F 32F 5 0% - - 100% 0 mhos 0 - Yes - - -
02/09/2018 06:36 Ice Warning 19.0F - 32F 32F 5 0% - - 100% 0 mhos 0 - Yes - - -
02/09/2018 06:26 Ice Warning 19.2F - 32F 32F 5 0% - - 100% 0 mhos 0 - Yes - - -
Date/Time
(MDT)
Sf
Temp Chem Water Layer Surface Precipitation
Sfc Pvt Sub Frz Factor Pct Dpth DpthThk IcePct Cond Salin FI Type Intens Accum Rate
02/09/2018 06:25 Ice Warning 19.2F - 32F 32F 5 0% - - 100% 0 mhos 0 - Yes - - -
02/09/2018 06:16 Ice Warning 19.2F - 32F 32F 5 0% - - 100% 0 mhos 0 - None None - -
02/09/2018 06:11 Ice Warning 19.0F - 32F 32F 5 0% - - 100% 0 mhos 0 - None None - -
02/09/2018 06:06 Ice Warning 19.0F - 32F 32F 5 0% - - 100% 0 mhos 0 - None None - -
02/09/2018 05:55 Ice Warning 18.9F - 32F 32F 5 0% - - 100% 0 mhos 0 - Yes - - -
02/09/2018 05:55 Ice Warning 18.9F - 32F 32F 5 0% - - 100% 0 mhos 0 - Yes - - -
02/09/2018 05:45 Ice Warning 19.2F - 32F 32F 5 0% - - 100% 0 mhos 0 - Yes - - -
02/09/2018 05:40 Ice Warning 19.2F - 32F 32F 5 0% - - 100% 0 mhos 0 - Yes - - -
02/09/2018 05:35 Ice Warning 19.2F - 32F 32F 5 0% - - 100% 0 mhos 0 - Yes - - -
02/09/2018 05:25 Dry 19.2F - 32F - - - - - - 0 mhos 0 - None None - -
02/09/2018 05:25 Dry 19.2F - 32F - - - - - - 0 mhos 0 - None None - -
02/09/2018 05:15 Ice Warning 18.9F - 32F 32F 5 0% - - 100% 0 mhos 0 - None None - -
02/09/2018 05:10 Ice Warning 18.7F - 32F 32F 5 0% - - 100% 0 mhos 0 - None None - -
02/09/2018 05:05 Ice Warning 18.5F - 32F 32F 15 0% - - 100% 0 mhos 0 - None None - -
02/09/2018 04:55 Ice Warning 18.3F - 32F 32F 20 0% - - 100% 0 mhos 0 - Yes - - -
Date/Time
(MDT)
Sf
Temp Chem Water Layer Surface Precipitation
Sfc Pvt Sub Frz Factor Pct Dpth DpthThk IcePct Cond Salin FI Type Intens Accum Rate
02/09/2018 04:55 Ice Warning 18.3F - 32F 32F 20 0% - - 100% 0 mhos 0 - Yes - - -
02/09/2018 04:45 Ice Warning 17.8F - 32F 32F 10 0% - - 100% 0 mhos 0 - Yes - - -
02/09/2018 04:40 Ice Warning 18.0F - 32F 32F 5 0% - - 100% 0 mhos 0 - Yes - - -
02/09/2018 04:35 Ice Warning 18.3F - 32F 32F 5 0% - - 100% 0 mhos 0 - Yes - - -
02/09/2018 04:25 Ice Warning 18.3F - 32F 32F 5 0% - - 100% 0 mhos 0 - Yes - - -
02/09/2018 04:25 Ice Warning 18.3F - 32F 32F 5 0% - - 100% 0 mhos 0 - Yes - - -
02/09/2018 04:15 Ice Warning 18.5F - 32F 32F 5 0% - - 100% 0 mhos 0 - Yes - - -
02/09/2018 04:10 Ice Warning 18.5F - 32F 32F 5 0% - - 100% 0 mhos 0 - Yes - - -
02/09/2018 04:05 Ice Warning 18.5F - 32F 32F 5 0% - - 100% 0 mhos 0 - Yes - - -
02/09/2018 03:56 Ice Warning 18.7F - 32F 32F 5 0% - - 100% 0 mhos 0 - Yes - - -
02/09/2018 03:55 Ice Warning 18.7F - 32F 32F 5 0% - - 100% 0 mhos 0 - Yes - - -
02/09/2018 03:45 Ice Warning 18.5F - 32F 32F 5 0% - - 100% 0 mhos 0 - Yes - - -
02/09/2018 03:40 Ice Warning 18.5F - 32F 32F 5 0% - - 100% 0 mhos 0 - Yes - - -
02/09/2018 03:35 Ice Warning 18.5F - 32F 32F 5 0% - - 100% 0 mhos 0 - Yes - - -
02/09/2018 03:25 Ice Warning 18.9F - 32F 32F 5 0% - - 100% 0 mhos 0 - Yes - - -
Date/Time
(MDT)
Sf
Temp Chem Water Layer Surface Precipitation
Sfc Pvt Sub Frz Factor Pct Dpth DpthThk IcePct Cond Salin FI Type Intens Accum Rate
02/09/2018 03:24 Ice Warning 18.9F - 32F 32F 5 0% - - 100% 0 mhos 0 - Yes - - -
02/09/2018 03:14 Ice Warning 18.9F - 32F 32F 5 0% - - 100% 0 mhos 0 - Yes - - -
02/09/2018 03:10 Ice Warning 19.0F - 32F 32F 5 0% - - 100% 0 mhos 0 - Yes - - -
02/09/2018 03:04 Ice Warning 19.2F - 32F 32F 5 0% - - 100% 0 mhos 0 - Yes - - -
02/09/2018 02:55 Ice Warning 19.6F - 32F 32F 5 0% - - 100% 0 mhos 0 - None None - -
02/09/2018 02:54 Ice Warning 19.6F - 32F 32F 5 0% - - 100% 0 mhos 0 - None None - -
02/09/2018 02:44 Ice Warning 19.9F - 32F 32F 5 0% - - 100% 0 mhos 0 - None None - -
02/09/2018 02:40 Ice Warning 20.3F - 32F 32F 5 0% - - 100% 0 mhos 0 - Yes - - -
02/09/2018 02:34 Ice Warning 20.1F - 32F 32F 5 0% - - 100% 0 mhos 0 - Yes - - -
02/09/2018 02:25 Ice Warning 20.5F - 32F 32F 5 0% - - 100% 0 mhos 0 - Yes - - -
02/09/2018 02:24 Ice Warning 20.5F - 32F 32F 5 0% - - 100% 0 mhos 0 - Yes - - -
02/09/2018 02:14 Ice Warning 21.7F - 32F 32F 5 0% - - 100% 0 mhos 0 - Yes - - -
02/09/2018 02:10 Ice Warning 22.1F - 32F 32F 10 0% - - 100% 0 mhos 0 - Yes - - -
02/09/2018 02:04 Ice Warning 22.5F - 32F 32F 10 0% - - 100% 0 mhos 0 - Yes - - -
02/09/2018 01:55 Ice Warning 22.5F - 32F 32F 10 0% - - 100% 0 mhos 0 - Yes - - -
Date/Time
(MDT)
Sf
Temp Chem Water Layer Surface Precipitation
Sfc Pvt Sub Frz Factor Pct Dpth DpthThk IcePct Cond Salin FI Type Intens Accum Rate
02/09/2018 01:54 Ice Warning 22.5F - 32F 32F 10 0% - - 100% 0 mhos 0 - None None - -
02/09/2018 01:44 Ice Warning 21.9F - 32F 32F 10 0% - - 100% 0 mhos 0 - None None - -
02/09/2018 01:40 Ice Warning 21.9F - 32F 32F 10 0% - - 100% 0 mhos 0 - Yes - - -
02/09/2018 01:34 Ice Warning 22.5F - 32F 32F 10 0% - - 100% 0 mhos 0 - Yes - - -
02/09/2018 01:25 Ice Warning 23.4F - 32F 32F 5 0% - - 100% 0 mhos 0 - Yes - - -
02/09/2018 01:24 Ice Warning 23.5F - 32F 32F 5 0% - - 100% 0 mhos 0 - Yes - - -
02/09/2018 01:14 Ice Warning 23.4F - 32F 32F 5 0% - - 100% 0 mhos 0 - Yes - - -
02/09/2018 01:10 Ice Warning 23.0F - 32F 32F 5 0% - - 100% 0 mhos 0 - None None - -
02/09/2018 01:04 Ice Warning 23.2F - 32F 32F 10 0% - - 100% 0 mhos 0 - Yes - - -
02/09/2018 00:55 Ice Warning 23.5F - 32F 32F 10 0% - - 100% 0 mhos 0 - Yes - - -
02/09/2018 00:53 Ice Warning 23.5F - 32F 32F 10 0% - - 100% 0 mhos 0 - Yes - - -
02/09/2018 00:43 Ice Warning 24.4F - 32F 32F 10 0% - - 100% 0 mhos 0 - Yes - - -
02/09/2018 00:41 Ice Warning 24.3F - 32F 32F 5 0% - - 100% 0 mhos 0 - Yes - - -
02/09/2018 00:33 Ice Warning 24.6F - 32F 32F 5 0% - - 100% 0 mhos 0 - Yes - - -
02/09/2018 00:25 Ice Warning 25.2F - 32F 32F 5 0% - - 100% 0 mhos 0 - Yes - - -
Date/Time
(MDT)
Sf
Temp Chem Water Layer Surface Precipitation
Sfc Pvt Sub Frz Factor Pct Dpth DpthThk IcePct Cond Salin FI Type Intens Accum Rate
02/09/2018 00:23 Ice Warning 25.3F - 32F 32F 5 0% - - 100% 0 mhos 0 - Yes - - -
02/09/2018 00:13 Ice Warning 25.3F - 32F 32F 5 0% - - 100% 0 mhos 0 - Yes - - -
02/09/2018 00:10 Ice Warning 25.2F - 32F 32F 5 0% - - 100% 0 mhos 0 - Yes - - -
02/09/2018 00:03 Ice Warning 25.3F - 32F 32F 5 0% - - 100% 0 mhos 0 - None None - -
02/08/2018 23:55 Ice Warning 25.5F - 32F 32F 5 0% - - 100% 0 mhos 0 - Yes - - -
02/08/2018 23:53 Ice Warning 25.5F - 32F 32F 5 0% - - 100% 0 mhos 0 - Yes - - -
02/08/2018 23:43 Ice Warning 25.3F - 32F 32F 5 0% - - 100% 0 mhos 0 - None None - -
02/08/2018 23:40 Ice Warning 25.3F - 32F 32F 5 0% - - 100% 0 mhos 0 - None None - -
02/08/2018 23:33 Ice Warning 25.3F - 32F 32F 5 0% - - 100% 0 mhos 0 - Yes - - -
02/08/2018 23:25 Ice Warning 25.5F - 32F 32F 5 0% - - 100% 0 mhos 0 - None None - -
02/08/2018 23:23 Ice Warning 25.3F - 32F 32F 5 0% - - 100% 0 mhos 0 - None None - -
02/08/2018 23:13 Ice Warning 25.3F - 32F 32F 5 0% - - 100% 0 mhos 0 - None None - -
02/08/2018 23:10 Ice Warning 25.3F - 32F 32F 5 0% - - 100% 0 mhos 0 - None None - -
02/08/2018 23:03 Ice Warning 25.3F - 32F 32F 5 0% - - 100% 0 mhos 0 - None None - -
02/08/2018 22:55 Ice Warning 25.3F - 32F 32F 5 0% - - 100% 0 mhos 0 - None None - -
Date/Time
(MDT)
Sf
Temp Chem Water Layer Surface Precipitation
Sfc Pvt Sub Frz Factor Pct Dpth DpthThk IcePct Cond Salin FI Type Intens Accum Rate
02/08/2018 22:53 Ice Warning 25.2F - 32F 32F 5 0% - - 100% 0 mhos 0 - Yes - - -
02/08/2018 22:43 Ice Watch 24.8F - 32F - 5 - - - - 0 mhos 0 - None None - -
02/08/2018 22:41 Ice Watch 24.8F - 32F - 5 - - - - 0 mhos 0 - None None - -
02/08/2018 22:33 Ice Watch 25.2F - 32F - 5 - - - - 0 mhos 0 - None None - -
02/08/2018 22:25 Ice Watch 25.3F - 32F - 5 - - - - 0 mhos 0 - None None - -
02/08/2018 22:23 Ice Watch 25.3F - 32F - 5 - - - - 0 mhos 0 - None None - -
02/08/2018 22:12 Ice Watch 25.3F - 32F - 10 - - - - 0 mhos 0 - None None - -
02/08/2018 22:10 Ice Watch 25.5F - 32F - 10 - - - - 0 mhos 0 - None None - -
02/08/2018 22:02 Ice Watch 25.7F - 32F - 10 - - - - 0 mhos 0 - None None - -
02/08/2018 21:55 Ice Watch 26.2F - 32F - 10 - - - - 0 mhos 0 - None None - -
02/08/2018 21:52 Ice Watch 26.2F - 32F - 5 - - - - 0 mhos 0 - None None - -
02/08/2018 21:42 Ice Watch 26.8F - 32F - 5 - - - - 0 mhos 0 - None None - -
02/08/2018 21:40 Ice Watch 26.8F - 32F - 5 - - - - 0 mhos 0 - None None - -
02/08/2018 21:32 Ice Watch 27.1F - 32F - 5 - - - - 0 mhos 0 - None None - -
02/08/2018 21:25 Ice Watch 27.3F - 32F - 5 - - - - 0 mhos 0 - None None - -
Date/Time
(MDT)
Sf
Temp Chem Water Layer Surface Precipitation
Sfc Pvt Sub Frz Factor Pct Dpth DpthThk IcePct Cond Salin FI Type Intens Accum Rate
02/08/2018 21:22 Ice Watch 27.3F - 32F - 5 - - - - 0 mhos 0 - None None - -
02/08/2018 21:12 Ice Watch 27.7F - 32F - 5 - - - - 0 mhos 0 - None None - -
02/08/2018 21:10 Ice Watch 27.9F - 32F - 5 - - - - 0 mhos 0 - None None - -
02/08/2018 21:02 Ice Watch 28.2F - 32F - 5 - - - - 0 mhos 0 - None None - -
02/08/2018 20:55 Ice Watch 28.6F - 32F - 5 - - - - 0 mhos 0 - None None - -
02/08/2018 20:52 Ice Watch 28.8F - 32F - 5 - - - - 0 mhos 0 - None None - -
02/08/2018 20:42 Ice Watch 29.3F - 32F - 5 - - - - 0 mhos 0 - None None - -
02/08/2018 20:40 Ice Watch 29.1F - 32F - 5 - - - - 0 mhos 0 - None None - -
02/08/2018 20:32 Ice Watch 29.8F - 32F - 5 - - - - 0 mhos 0 - None None - -
02/08/2018 20:25 Ice Watch 30.2F - 32F - 10 - - - - 0 mhos 0 - None None - -
02/08/2018 20:22 Ice Watch 30.2F - 32F - 5 - - - - 0 mhos 0 - None None - -
02/08/2018 20:12 Ice Watch 30.9F - 32F - 5 - - - - 0 mhos 0 - None None - -
02/08/2018 20:10 Ice Watch 31.1F - 32F - 5 - - - - 0 mhos 0 - None None - -
02/08/2018 20:02 Ice Watch 31.3F - 32F - 5 - - - - 0 mhos 0 - None None - -
02/08/2018 19:55 Ice Watch 31.5F - 32F - 5 - - - - 0 mhos 0 - None None - -
Date/Time
(MDT)
Sf
Temp Chem Water Layer Surface Precipitation
Sfc Pvt Sub Frz Factor Pct Dpth DpthThk IcePct Cond Salin FI Type Intens Accum Rate
02/08/2018 19:52 Ice Watch 31.6F - 32F - 5 - - - - 0 mhos 0 - None None - -
02/08/2018 19:42 Trace Moisture 32.5F - 32F - 5 - - - - 0 mhos 0 - None None - -
02/08/2018 19:40 Trace Moisture 32.5F - 32F - 5 - - - - 0 mhos 0 - None None - -
02/08/2018 19:31 Trace Moisture 33.3F - 32F - 5 - - - - 0 mhos 0 - None None - -
02/08/2018 19:25 Trace Moisture 33.6F - 32F - 5 - - - - 0 mhos 0 - None None - -
02/08/2018 19:21 Trace Moisture 33.8F - 32F - 5 - - - - 0 mhos 0 - None None - -
02/08/2018 19:11 Trace Moisture 34.2F - 32F - 5 - - - - 0 mhos 0 - None None - -
02/08/2018 19:10 Trace Moisture 34.2F - 32F - 5 - - - - 0 mhos 0 - None None - -
02/08/2018 19:01 Trace Moisture 34.5F - 32F - 5 - - - - 0 mhos 0 - None None - -
02/08/2018 18:55 Trace Moisture 34.9F - 32F - 5 - - - - 0 mhos 0 - None None - -
02/08/2018 18:51 Trace Moisture 35.1F - 32F - 5 - - - - 0 mhos 0 - None None - -
02/08/2018 18:41 Trace Moisture 36.0F - 32F - 5 - - - - 0 mhos 0 - None None - -
02/08/2018 18:40 Trace Moisture 35.8F - 32F - 5 - - - - 0 mhos 0 - None None - -
02/08/2018 18:31 Trace Moisture 36.0F - 32F - 5 - - - - 0 mhos 0 - None None - -
Change End Date:

Copyright © 1998-2015 Vaisala, Inc.
All Rights Reserved
Send comments about the data to:
SCAN Web ® is a registered trademark of Vaisala, Inc.
SCAN Web Version 6.0